TimeCDT,TemperatureF,Dew PointF,Humidity,Sea Level PressureIn,VisibilityMPH,Wind Direction,Wind SpeedMPH,Gust SpeedMPH,PrecipitationIn,Events,Conditions,WindDirDegrees,DateUTC
12:15 AM,53.6,53.6,100,29.72,10.0,Calm,Calm,-,N/A,,Clear,0,2013-03-10 06:15:00
12:35 AM,53.6,53.6,100,29.74,10.0,WNW,3.5,-,N/A,,Scattered Clouds,300,2013-03-10 06:35:00
12:55 AM,53.6,53.6,100,29.78,7.0,West,8.1,-,N/A,Rain,Light Rain,270,2013-03-10 06:55:00
1:15 AM,53.6,53.6,100,29.76,10.0,WNW,4.6,-,N/A,,Light Drizzle,290,2013-03-10 07:15:00
1:35 AM,53.6,53.6,100,29.76,10.0,WNW,5.8,-,N/A,,Scattered Clouds,290,2013-03-10 07:35:00
1:55 AM,53.6,53.6,100,29.73,10.0,NW,6.9,-,N/A,,Scattered Clouds,320,2013-03-10 07:55:00
3:15 AM,53.6,50.0,88,29.77,10.0,West,12.7,-,N/A,,Scattered Clouds,280,2013-03-10 08:15:00
3:35 AM,51.8,46.4,82,29.74,10.0,WNW,11.5,-,N/A,,Drizzle,300,2013-03-10 08:35:00
3:55 AM,51.8,46.4,82,29.73,10.0,West,6.9,-,N/A,Rain,Light Rain,260,2013-03-10 08:55:00
4:15 AM,51.8,50.0,94,29.75,10.0,SSE,5.8,-,N/A,Rain,Light Rain,160,2013-03-10 09:15:00
4:35 AM,51.8,50.0,94,29.75,10.0,South,8.1,-,N/A,,Light Drizzle,180,2013-03-10 09:35:00
4:55 AM,51.8,46.4,82,29.68,10.0,SSE,3.5,-,N/A,,Light Drizzle,150,2013-03-10 09:55:00
5:15 AM,51.8,50.0,94,29.69,10.0,South,6.9,-,N/A,,Clear,170,2013-03-10 10:15:00
5:35 AM,51.8,50.0,94,29.72,10.0,SSW,8.1,-,N/A,,Clear,200,2013-03-10 10:35:00
5:55 AM,51.8,44.6,76,29.72,10.0,WNW,26.5,32.2,N/A,,Clear,290,2013-03-10 10:55:00
6:15 AM,46.4,41.0,81,29.79,10.0,West,15.0,21.9,N/A,,Clear,280,2013-03-10 11:15:00
6:35 AM,46.4,41.0,81,29.77,10.0,WNW,8.1,-,N/A,,Clear,290,2013-03-10 11:35:00
11:35 PM,37.4,32.0,81,30.09,10.0,NNW,4.6,-,N/A,,Clear,330,2013-03-11 04:35:00
12:15 AM,35.6,30.2,81,30.08,10.0,NNW,5.8,-,N/A,,Clear,330,2013-03-11 05:15:00
12:35 AM,33.8,30.2,87,30.07,10.0,NW,5.8,-,N/A,,Clear,320,2013-03-11 05:35:00
12:55 AM,33.8,30.2,87,30.07,10.0,NNW,5.8,-,N/A,,Clear,330,2013-03-11 05:55:00